Location: Broadview
(41.2178°N, 81.6385°W)
Time: 15:17:53
(UTC+00:00)

N. Korean satellite - Visible Passes

Search period start: 05 October 2022 00:00
Search period end: 15 October 2022 00:00
Orbit: 426 x 467 km, 97.3° (Epoch: 05 October)

Date Brightness Start Highest point End Pass type
(mag) Time Alt. Az. Time Alt. Az. Time Alt. Az.
05 Oct 8.3 10:16:27 10° NNE 10:19:26 32° E 10:22:23 10° SSE visible
06 Oct 9.9 09:42:16 10° ENE 09:43:11 11° E 09:44:07 10° ESE visible
07 Oct 6.7 10:36:46 10° NNE 10:40:01 66° E 10:43:16 10° S visible
08 Oct 9.2 10:01:16 10° NE 10:03:46 20° E 10:06:15 10° SE visible
09 Oct 6.3 10:57:05 10° N 11:00:19 59° WNW 11:03:32 10° SSW visible
10 Oct 8.0 10:20:58 10° NNE 10:24:02 37° E 10:27:08 10° SSE visible
11 Oct 9.8 09:46:03 10° ENE 09:47:33 13° E 09:49:02 10° ESE visible
12 Oct 6.5 10:40:45 10° NNE 10:44:02 77° ESE 10:47:19 10° S visible
13 Oct 9.0 10:04:51 10° NE 10:07:31 22° E 10:10:10 10° SSE visible
14 Oct 6.4 11:00:30 10° N 11:03:43 53° WNW 11:06:56 10° SSW visible
